^^
Saratoga-Weather Station Historical Data
Daily Summary for August 11, 2022 Units:  Metric    English   Both
Daily Weekly Monthly Yearly Custom
  High: Low: Average:
Temperature: 31.7 °C 17.1 °C 24.5 °C
Dew Point: 12 °C 8.9 °C 9.9 °C
Humidity: 60% 26% 42%
Wind Speed: 20.9km/h 0km/h 3.2km/h
Wind Gust: 24.1km/h - -
Wind- - SE
Pressure: 1019.6 hPa 1015.2 hPa -
Precipitation: 0.0 mm    
Historical Graphs
 
 
Tabular Data for August 11, 2022
Time Temperature Dew Point Pressure Wind Wind Speed Wind Gust Humidity Rainfall Rate (Hourly) solar
00:03 20.8 °C 9.4 °C 1019.0 hPa Calm   1.6 km/h 48% 0.0 mm 0 W/m2
00:08 20.7 °C 9.6 °C 1019.0 hPa Calm   3.2 km/h 49% 0.0 mm 0 W/m2
00:13 20.5 °C 9.4 °C 1019.0 hPa Calm     49% 0.0 mm 0 W/m2
00:18 20.4 °C 9.6 °C 1019.0 hPa Calm     50% 0.0 mm 0 W/m2
00:23 20.2 °C 9.4 °C 1019.0 hPa ESE 1.4 km/h 3.2 km/h 50% 0.0 mm 0 W/m2
00:28 20.1 °C 9.6 °C 1019.0 hPa Calm   1.6 km/h 51% 0.0 mm 0 W/m2
00:33 19.9 °C 9.8 °C 1019.0 hPa ESE 1.4 km/h 1.6 km/h 52% 0.0 mm 0 W/m2
00:38 19.7 °C 9.6 °C 1019.0 hPa Calm   3.2 km/h 52% 0.0 mm 0 W/m2
00:43 19.6 °C 9.5 °C 1019.0 hPa Calm   3.2 km/h 52% 0.0 mm 0 W/m2
00:48 19.6 °C 9.5 °C 1019.0 hPa ESE 3.2 km/h 3.2 km/h 52% 0.0 mm 0 W/m2
00:53 19.4 °C 9.3 °C 1019.0 hPa Calm     52% 0.0 mm 0 W/m2
00:58 19.4 °C 9.6 °C 1019.0 hPa Calm   1.6 km/h 53% 0.0 mm 0 W/m2
01:03 19.3 °C 9.5 °C 1019.0 hPa Calm     53% 0.0 mm 0 W/m2
01:08 19.3 °C 9.5 °C 1019.0 hPa Calm     53% 0.0 mm 0 W/m2
01:13 19.3 °C 9.5 °C 1019.0 hPa Calm     53% 0.0 mm 0 W/m2
01:18 19.2 °C 9.4 °C 1019.0 hPa Calm     53% 0.0 mm 0 W/m2
01:23 19.1 °C 9.6 °C 1019.0 hPa Calm     54% 0.0 mm 0 W/m2
01:28 19.1 °C 9.6 °C 1019.0 hPa Calm   3.2 km/h 54% 0.0 mm 0 W/m2
01:33 18.9 °C 9.4 °C 1019.0 hPa Calm     54% 0.0 mm 0 W/m2
01:38 18.9 °C 9.4 °C 1018.6 hPa Calm   3.2 km/h 54% 0.0 mm 0 W/m2
01:43 18.9 °C 9.4 °C 1018.6 hPa Calm   1.6 km/h 54% 0.0 mm 0 W/m2
01:48 18.8 °C 9.3 °C 1019.0 hPa Calm   1.6 km/h 54% 0.0 mm 0 W/m2
01:53 18.8 °C 9.3 °C 1018.6 hPa Calm   3.2 km/h 54% 0.0 mm 0 W/m2
01:58 18.7 °C 9.5 °C 1018.6 hPa SSE 1.4 km/h 1.6 km/h 55% 0.0 mm 0 W/m2
02:03 18.6 °C 9.1 °C 1018.6 hPa Calm   3.2 km/h 54% 0.0 mm 0 W/m2
02:08 18.5 °C 9.3 °C 1018.6 hPa SSE 1.4 km/h 1.6 km/h 55% 0.0 mm 0 W/m2
02:13 18.5 °C 9.3 °C 1018.6 hPa Calm   3.2 km/h 55% 0.0 mm 0 W/m2
02:18 18.4 °C 9.2 °C 1018.6 hPa Calm   3.2 km/h 55% 0.0 mm 0 W/m2
02:23 18.4 °C 9.5 °C 1019.0 hPa Calm     56% 0.0 mm 0 W/m2
02:28 18.3 °C 9.4 °C 1019.0 hPa Calm   1.6 km/h 56% 0.0 mm 0 W/m2
02:33 18.2 °C 9.3 °C 1019.0 hPa South 1.4 km/h 1.6 km/h 56% 0.0 mm 0 W/m2
02:38 18.1 °C 9.2 °C 1019.0 hPa Calm   1.6 km/h 56% 0.0 mm 0 W/m2
02:43 18.1 °C 9.2 °C 1019.0 hPa Calm     56% 0.0 mm 0 W/m2
02:48 17.9 °C 9.3 °C 1019.0 hPa Calm     57% 0.0 mm 0 W/m2
02:53 17.9 °C 9.5 °C 1019.0 hPa Calm     58% 0.0 mm 0 W/m2
02:58 17.8 °C 9.4 °C 1019.0 hPa Calm   1.6 km/h 58% 0.0 mm 0 W/m2
03:03 17.7 °C 9.3 °C 1019.0 hPa Calm     58% 0.0 mm 0 W/m2
03:08 17.6 °C 9.5 °C 1018.6 hPa Calm   1.6 km/h 59% 0.0 mm 0 W/m2
03:13 17.4 °C 9.3 °C 1019.0 hPa Calm   1.6 km/h 59% 0.0 mm 0 W/m2
03:18 17.4 °C 9.3 °C 1019.0 hPa Calm   1.6 km/h 59% 0.0 mm 0 W/m2
03:23 17.3 °C 9.5 °C 1019.0 hPa Calm     60% 0.0 mm 0 W/m2
03:28 17.3 °C 9.5 °C 1019.0 hPa South 1.4 km/h 1.6 km/h 60% 0.0 mm 0 W/m2
03:33 17.2 °C 9.1 °C 1019.0 hPa Calm     59% 0.0 mm 0 W/m2
03:38 17.2 °C 9.4 °C 1019.0 hPa South 1.4 km/h 1.6 km/h 60% 0.0 mm 0 W/m2
03:43 17.2 °C 9.4 °C 1019.0 hPa Calm     60% 0.0 mm 0 W/m2
03:48 17.2 °C 9.4 °C 1019.0 hPa SSW 1.4 km/h 4.8 km/h 60% 0.0 mm 0 W/m2
03:53 17.2 °C 9.1 °C 1019.0 hPa Calm   3.2 km/h 59% 0.0 mm 0 W/m2
03:59 17.3 °C 9.2 °C 1019.0 hPa Calm   4.8 km/h 59% 0.0 mm 0 W/m2
04:04 17.3 °C 9.5 °C 1019.0 hPa Calm   1.6 km/h 60% 0.0 mm 0 W/m2
04:09 17.2 °C 9.1 °C 1019.0 hPa SSW 1.4 km/h 3.2 km/h 59% 0.0 mm 0 W/m2
04:14 17.2 °C 9.4 °C 1019.0 hPa Calm   1.6 km/h 60% 0.0 mm 0 W/m2
04:19 17.1 °C 9.3 °C 1019.0 hPa SSW 1.4 km/h 1.6 km/h 60% 0.0 mm 0 W/m2
04:24 17.1 °C 9.3 °C 1019.0 hPa SSW 1.4 km/h 3.2 km/h 60% 0.0 mm 0 W/m2
04:29 17.1 °C 9.3 °C 1019.0 hPa SW 3.2 km/h 3.2 km/h 60% 0.0 mm 0 W/m2
04:34 17.2 °C 9.4 °C 1019.0 hPa West 4.7 km/h 4.8 km/h 60% 0.0 mm 0 W/m2
04:39 17.3 °C 9.2 °C 1019.0 hPa SW 1.4 km/h 3.2 km/h 59% 0.0 mm 0 W/m2
04:44 17.5 °C 9.4 °C 1019.0 hPa Calm   4.8 km/h 59% 0.0 mm 0 W/m2
04:49 17.6 °C 9.2 °C 1019.0 hPa WSW 1.4 km/h 1.6 km/h 58% 0.0 mm 0 W/m2
04:54 17.7 °C 9.3 °C 1019.0 hPa Calm   4.8 km/h 58% 0.0 mm 0 W/m2
04:59 17.8 °C 9.4 °C 1019.0 hPa Calm   4.8 km/h 58% 0.0 mm 0 W/m2
05:04 17.8 °C 9.4 °C 1019.0 hPa Calm   3.2 km/h 58% 0.0 mm 0 W/m2
05:09 17.8 °C 9.4 °C 1019.0 hPa WNW 1.4 km/h 4.8 km/h 58% 0.0 mm 0 W/m2
05:14 17.7 °C 9.3 °C 1019.0 hPa Calm   3.2 km/h 58% 0.0 mm 0 W/m2
05:19 17.8 °C 9.4 °C 1019.0 hPa Calm   1.6 km/h 58% 0.0 mm 0 W/m2
05:24 17.8 °C 9.4 °C 1019.0 hPa Calm   4.8 km/h 58% 0.0 mm 0 W/m2
05:29 17.8 °C 9.2 °C 1019.0 hPa SW 1.4 km/h 3.2 km/h 57% 0.0 mm 0 W/m2
05:34 17.8 °C 9.4 °C 1019.0 hPa SW 3.2 km/h 3.2 km/h 58% 0.0 mm 0 W/m2
05:39 17.7 °C 9.3 °C 1019.0 hPa Calm   1.6 km/h 58% 0.0 mm 0 W/m2
05:44 17.6 °C 9.5 °C 1019.0 hPa Calm   3.2 km/h 59% 0.0 mm 0 W/m2
05:49 17.6 °C 9.5 °C 1019.0 hPa Calm   3.2 km/h 59% 0.0 mm 0 W/m2
05:54 17.5 °C 9.4 °C 1019.0 hPa SW 1.4 km/h 3.2 km/h 59% 0.0 mm 0 W/m2
05:59 17.6 °C 9.5 °C 1019.0 hPa Calm   1.6 km/h 59% 0.0 mm 0 W/m2
06:04 17.6 °C 9.5 °C 1019.0 hPa Calm   1.6 km/h 59% 0.0 mm 0 W/m2
06:09 17.6 °C 9.5 °C 1019.0 hPa Calm   1.6 km/h 59% 0.0 mm 0 W/m2
06:14 17.6 °C 9.5 °C 1019.0 hPa Calm   1.6 km/h 59% 0.0 mm 0 W/m2
06:19 17.4 °C 9.6 °C 1019.0 hPa SW 1.4 km/h 1.6 km/h 60% 0.0 mm 0 W/m2
06:24 17.3 °C 9.5 °C 1019.0 hPa Calm   1.6 km/h 60% 0.0 mm 5 W/m2
06:29 17.3 °C 9.5 °C 1019.0 hPa Calm   3.2 km/h 60% 0.0 mm 5 W/m2
06:34 17.2 °C 9.4 °C 1019.0 hPa SW 4.7 km/h 4.8 km/h 60% 0.0 mm 9 W/m2
06:39 17.3 °C 9.5 °C 1019.0 hPa Calm   3.2 km/h 60% 0.0 mm 11 W/m2
06:44 17.3 °C 9.5 °C 1019.0 hPa West 1.4 km/h 1.6 km/h 60% 0.0 mm 12 W/m2
06:49 17.3 °C 9.5 °C 1019.0 hPa Calm   1.6 km/h 60% 0.0 mm 14 W/m2
06:54 17.4 °C 9.3 °C 1019.0 hPa Calm   3.2 km/h 59% 0.0 mm 16 W/m2
06:59 17.6 °C 9.5 °C 1019.0 hPa Calm   3.2 km/h 59% 0.0 mm 18 W/m2
07:04 17.7 °C 9.8 °C 1019.0 hPa Calm   1.6 km/h 60% 0.0 mm 19 W/m2
07:09 17.7 °C 9.8 °C 1019.0 hPa Calm   1.6 km/h 60% 0.0 mm 21 W/m2
07:14 17.8 °C 9.7 °C 1019.0 hPa Calm     59% 0.0 mm 23 W/m2
07:19 17.9 °C 9.5 °C 1019.0 hPa Calm   3.2 km/h 58% 0.0 mm 25 W/m2
07:24 18 °C 9.9 °C 1019.0 hPa Calm     59% 0.0 mm 26 W/m2
07:29 18.2 °C 9.8 °C 1019.0 hPa Calm   3.2 km/h 58% 0.0 mm 28 W/m2
07:34 18.3 °C 9.9 °C 1019.0 hPa Calm     58% 0.0 mm 81 W/m2
07:39 18.5 °C 9.8 °C 1019.3 hPa Calm     57% 0.0 mm 95 W/m2
07:44 18.8 °C 9.8 °C 1019.3 hPa WNW 3.2 km/h 3.2 km/h 56% 0.0 mm 107 W/m2
07:49 19.2 °C 9.9 °C 1019.3 hPa Calm   3.2 km/h 55% 0.0 mm 121 W/m2
07:54 19.6 °C 10 °C 1019.3 hPa Calm   3.2 km/h 54% 0.0 mm 137 W/m2
07:59 19.8 °C 9.9 °C 1019.3 hPa NW 1.4 km/h 3.2 km/h 53% 0.0 mm 151 W/m2
08:04 20.1 °C 10.2 °C 1019.3 hPa Calm   1.6 km/h 53% 0.0 mm 165 W/m2
08:09 20.4 °C 10.2 °C 1019.3 hPa Calm     52% 0.0 mm 179 W/m2
08:14 20.9 °C 10.4 °C 1019.3 hPa NNW 1.4 km/h 1.6 km/h 51% 0.0 mm 153 W/m2
08:19 21.3 °C 10.5 °C 1019.3 hPa Calm     50% 0.0 mm 79 W/m2
08:24 21.5 °C 10.3 °C 1019.3 hPa NNE 1.4 km/h 3.2 km/h 49% 0.0 mm 46 W/m2
08:29 21.5 °C 10.3 °C 1019.3 hPa SE 1.4 km/h 4.8 km/h 49% 0.0 mm 46 W/m2
08:34 21.7 °C 10.2 °C 1019.3 hPa North 1.4 km/h 6.4 km/h 48% 0.0 mm 46 W/m2
08:39 21.8 °C 10.3 °C 1019.3 hPa Calm   1.6 km/h 48% 0.0 mm 46 W/m2
08:44 22 °C 10.2 °C 1019.3 hPa ENE 3.2 km/h 6.4 km/h 47% 0.0 mm 46 W/m2
08:49 22.2 °C 10.4 °C 1019.3 hPa NE 1.4 km/h 1.6 km/h 47% 0.0 mm 47 W/m2
08:54 22.5 °C 10.3 °C 1019.3 hPa NE 1.4 km/h 3.2 km/h 46% 0.0 mm 47 W/m2
08:59 22.5 °C 10.6 °C 1019.6 hPa ENE 1.4 km/h 3.2 km/h 47% 0.0 mm 47 W/m2
09:04 22.6 °C 10.4 °C 1019.6 hPa NE 1.4 km/h 9.7 km/h 46% 0.0 mm 47 W/m2
09:09 22.6 °C 10.4 °C 1019.6 hPa Calm   4.8 km/h 46% 0.0 mm 46 W/m2
09:14 22.6 °C 10.4 °C 1019.6 hPa Calm   9.7 km/h 46% 0.0 mm 47 W/m2
09:19 22.7 °C 10.5 °C 1019.6 hPa WNW 3.2 km/h 4.8 km/h 46% 0.0 mm 47 W/m2
09:24 22.7 °C 10.8 °C 1019.6 hPa NNW 3.2 km/h 3.2 km/h 47% 0.0 mm 47 W/m2
09:29 22.9 °C 11 °C 1019.3 hPa Calm   4.8 km/h 47% 0.0 mm 47 W/m2
09:34 23.1 °C 10.8 °C 1019.6 hPa East 4.7 km/h 6.4 km/h 46% 0.0 mm 49 W/m2
09:39 23.3 °C 11 °C 1019.6 hPa ESE 3.2 km/h 11.3 km/h 46% 0.0 mm 49 W/m2
09:44 23.5 °C 10.9 °C 1019.3 hPa WNW 1.4 km/h 4.8 km/h 45% 0.0 mm 47 W/m2
09:49 23.7 °C 11.1 °C 1019.3 hPa East 3.2 km/h 9.7 km/h 45% 0.0 mm 49 W/m2
09:54 23.9 °C 11.2 °C 1019.3 hPa East 1.4 km/h 8 km/h 45% 0.0 mm 53 W/m2
09:59 24.1 °C 11.1 °C 1019.3 hPa North 4.7 km/h 8 km/h 44% 0.0 mm 54 W/m2
10:04 24.3 °C 11.3 °C 1019.3 hPa ENE 11.1 km/h 12.9 km/h 44% 0.0 mm 56 W/m2
10:09 24.6 °C 11.5 °C 1019.3 hPa ENE 1.4 km/h 9.7 km/h 44% 0.0 mm 114 W/m2
10:14 24.7 °C 11.6 °C 1019.3 hPa East 4.7 km/h 6.4 km/h 44% 0.0 mm 466 W/m2
10:19 25.1 °C 11.6 °C 1019.3 hPa ESE 9.7 km/h 9.7 km/h 43% 0.0 mm 536 W/m2
10:24 25.4 °C 11.9 °C 1019.3 hPa North 1.4 km/h 6.4 km/h 43% 0.0 mm 548 W/m2
10:29 25.7 °C 11.8 °C 1019.3 hPa ENE 9.7 km/h 9.7 km/h 42% 0.0 mm 559 W/m2
10:34 25.9 °C 12 °C 1019.3 hPa East 3.2 km/h 9.7 km/h 42% 0.0 mm 573 W/m2
10:39 26.2 °C 11.5 °C 1019.3 hPa NE 6.4 km/h 14.5 km/h 40% 0.0 mm 582 W/m2
10:44 26.4 °C 11.7 °C 1019.3 hPa NNE 7.9 km/h 12.9 km/h 40% 0.0 mm 594 W/m2
10:49 26.6 °C 11.9 °C 1019.0 hPa ESE 4.7 km/h 6.4 km/h 40% 0.0 mm 605 W/m2
10:54 26.9 °C 11.8 °C 1019.3 hPa NE 19.5 km/h 19.3 km/h 39% 0.0 mm 624 W/m2
10:59 27.3 °C 11.3 °C 1019.0 hPa SE 3.2 km/h 11.3 km/h 37% 0.0 mm 635 W/m2
11:04 27.7 °C 10.8 °C 1019.3 hPa North 19.3 km/h 19.3 km/h 35% 0.0 mm 642 W/m2
11:09 27.7 °C 10.8 °C 1019.3 hPa East 1.4 km/h 11.3 km/h 35% 0.0 mm 652 W/m2
11:14 27.8 °C 10.5 °C 1019.0 hPa SE 4.7 km/h 19.3 km/h 34% 0.0 mm 663 W/m2
11:19 27.9 °C 10.6 °C 1019.0 hPa ENE 6.4 km/h 9.7 km/h 34% 0.0 mm 675 W/m2
11:24 28.1 °C 10.3 °C 1019.0 hPa SSE 9.7 km/h 14.5 km/h 33% 0.0 mm 680 W/m2
11:29 28.2 °C 9.5 °C 1019.0 hPa ESE 3.2 km/h 12.9 km/h 31% 0.0 mm 689 W/m2
11:34 28.3 °C 10.5 °C 1019.0 hPa ENE 14.3 km/h 14.5 km/h 33% 0.0 mm 703 W/m2
11:39 28.3 °C 10 °C 1019.0 hPa ENE 14.3 km/h 14.5 km/h 32% 0.0 mm 712 W/m2
11:45 28.4 °C 10.6 °C 1019.0 hPa East 3.2 km/h 16.1 km/h 33% 0.0 mm 719 W/m2
11:50 28.6 °C 10.3 °C 1019.0 hPa East 3.2 km/h 14.5 km/h 32% 0.0 mm 729 W/m2
11:55 28.6 °C 9.8 °C 1019.0 hPa East 11.1 km/h 16.1 km/h 31% 0.0 mm 737 W/m2
12:00 28.6 °C 10.3 °C 1019.0 hPa SSE 6.4 km/h 16.1 km/h 32% 0.0 mm 749 W/m2
12:05 28.6 °C 9.8 °C 1018.6 hPa ENE 3.2 km/h 11.3 km/h 31% 0.0 mm 752 W/m2
12:10 28.7 °C 9.9 °C 1018.6 hPa ESE 4.7 km/h 17.7 km/h 31% 0.0 mm 754 W/m2
12:15 28.7 °C 9.9 °C 1018.6 hPa SE 6.4 km/h 14.5 km/h 31% 0.0 mm 765 W/m2
12:20 28.7 °C 9.9 °C 1018.6 hPa East 9.7 km/h 20.9 km/h 31% 0.0 mm 766 W/m2
12:25 28.9 °C 9.6 °C 1018.3 hPa ESE 13 km/h 16.1 km/h 30% 0.0 mm 775 W/m2
12:30 29 °C 10.6 °C 1018.6 hPa NW 4.7 km/h 20.9 km/h 32% 0.0 mm 786 W/m2
12:35 28.9 °C 10.1 °C 1018.3 hPa NNW 17.7 km/h 24.1 km/h 31% 0.0 mm 788 W/m2
12:40 28.8 °C 10.5 °C 1018.3 hPa East 6.4 km/h 16.1 km/h 32% 0.0 mm 795 W/m2
12:45 28.9 °C 11 °C 1018.3 hPa East 6.4 km/h 9.7 km/h 33% 0.0 mm 800 W/m2
12:50 29 °C 10.2 °C 1018.3 hPa ENE 20.9 km/h 20.9 km/h 31% 0.0 mm 805 W/m2
12:55 28.9 °C 9.6 °C 1018.3 hPa ESE 9.7 km/h 16.1 km/h 30% 0.0 mm 807 W/m2
13:00 29 °C 9.2 °C 1018.3 hPa ENE 11.1 km/h 22.5 km/h 29% 0.0 mm 812 W/m2
13:05 29.1 °C 9.8 °C 1018.0 hPa East 9.7 km/h 12.9 km/h 30% 0.0 mm 814 W/m2
13:10 29.2 °C 9.3 °C 1018.0 hPa NE 6.4 km/h 22.5 km/h 29% 0.0 mm 819 W/m2
13:15 29.7 °C 9.8 °C 1018.0 hPa SE 4.7 km/h 16.1 km/h 29% 0.0 mm 821 W/m2
13:20 29.9 °C 9.9 °C 1018.0 hPa ENE 3.2 km/h 8 km/h 29% 0.0 mm 824 W/m2
13:25 30.1 °C 9.6 °C 1018.0 hPa East 3.2 km/h 9.7 km/h 28% 0.0 mm 824 W/m2
13:30 30.3 °C 9.2 °C 1018.0 hPa ESE 4.7 km/h 11.3 km/h 27% 0.0 mm 831 W/m2
13:35 30.3 °C 9.2 °C 1018.0 hPa NNE 7.9 km/h 20.9 km/h 27% 0.0 mm 830 W/m2
13:40 30.2 °C 9.1 °C 1018.0 hPa East 16.3 km/h 16.1 km/h 27% 0.0 mm 833 W/m2
13:45 30 °C 9.5 °C 1018.0 hPa ENE 9.7 km/h 17.7 km/h 28% 0.0 mm 830 W/m2
13:50 30.1 °C 9.6 °C 1018.0 hPa ENE 7.9 km/h 19.3 km/h 28% 0.0 mm 831 W/m2
13:55 30.1 °C 9 °C 1018.0 hPa East 19.5 km/h 19.3 km/h 27% 0.0 mm 833 W/m2
14:00 30.1 °C 9.6 °C 1018.0 hPa SE 7.9 km/h 14.5 km/h 28% 0.0 mm 831 W/m2
14:05 30.2 °C 9.7 °C 1017.6 hPa ENE 19.3 km/h 19.3 km/h 28% 0.0 mm 831 W/m2
14:10 30.1 °C 9.6 °C 1017.6 hPa East 4.7 km/h 12.9 km/h 28% 0.0 mm 833 W/m2
14:15 30.1 °C 9 °C 1017.6 hPa NE 4.7 km/h 12.9 km/h 27% 0.0 mm 830 W/m2
14:20 30.1 °C 9.6 °C 1017.6 hPa ENE 6.4 km/h 16.1 km/h 28% 0.0 mm 826 W/m2
14:25 30.1 °C 9.6 °C 1017.6 hPa SW 1.4 km/h 9.7 km/h 28% 0.0 mm 828 W/m2
14:30 30.2 °C 9.7 °C 1017.3 hPa NE 6.4 km/h 9.7 km/h 28% 0.0 mm 826 W/m2
14:35 30.3 °C 9.8 °C 1017.3 hPa ESE 7.9 km/h 12.9 km/h 28% 0.0 mm 826 W/m2
14:40 30.4 °C 9.8 °C 1017.3 hPa NW 6.4 km/h 9.7 km/h 28% 0.0 mm 824 W/m2
14:45 30.6 °C 8.9 °C 1017.3 hPa SE 6.4 km/h 16.1 km/h 26% 0.0 mm 817 W/m2
14:50 30.6 °C 9.5 °C 1017.3 hPa ENE 7.9 km/h 16.1 km/h 27% 0.0 mm 819 W/m2
14:55 30.4 °C 9.3 °C 1017.3 hPa ESE 14.3 km/h 14.5 km/h 27% 0.0 mm 814 W/m2
15:00 30.3 °C 9.8 °C 1016.9 hPa SE 7.9 km/h 12.9 km/h 28% 0.0 mm 809 W/m2
15:05 30.2 °C 9.7 °C 1016.9 hPa NNE 4.7 km/h 11.3 km/h 28% 0.0 mm 805 W/m2
15:10 30.3 °C 9.8 °C 1016.9 hPa East 11.1 km/h 16.1 km/h 28% 0.0 mm 798 W/m2
15:15 30.6 °C 10 °C 1016.9 hPa ENE 4.7 km/h 12.9 km/h 28% 0.0 mm 795 W/m2
15:20 30.8 °C 9.6 °C 1016.9 hPa ENE 6.4 km/h 19.3 km/h 27% 0.0 mm 789 W/m2
15:25 30.8 °C 9.6 °C 1016.9 hPa North 4.7 km/h 11.3 km/h 27% 0.0 mm 786 W/m2
15:30 30.9 °C 9.7 °C 1016.9 hPa East 4.7 km/h 19.3 km/h 27% 0.0 mm 777 W/m2
15:35 31.1 °C 9.9 °C 1016.9 hPa ESE 6.4 km/h 12.9 km/h 27% 0.0 mm 773 W/m2
15:40 31.2 °C 10 °C 1016.6 hPa ESE 4.7 km/h 9.7 km/h 27% 0.0 mm 770 W/m2
15:45 31.3 °C 10.1 °C 1016.6 hPa NW 1.4 km/h 6.4 km/h 27% 0.0 mm 756 W/m2
15:50 31.4 °C 10.2 °C 1016.6 hPa ENE 13 km/h 16.1 km/h 27% 0.0 mm 749 W/m2
15:55 31.4 °C 10.2 °C 1016.6 hPa South 7.9 km/h 8 km/h 27% 0.0 mm 733 W/m2
16:00 31.2 °C 10.5 °C 1016.6 hPa NNW 6.4 km/h 11.3 km/h 28% 0.0 mm 721 W/m2
16:05 31.2 °C 10 °C 1016.6 hPa ESE 3.2 km/h 6.4 km/h 27% 0.0 mm 717 W/m2
16:10 31.3 °C 10.1 °C 1016.3 hPa SW 3.2 km/h 12.9 km/h 27% 0.0 mm 714 W/m2
16:15 31.4 °C 10.2 °C 1016.3 hPa NE 9.7 km/h 14.5 km/h 27% 0.0 mm 698 W/m2
16:20 31.3 °C 10.1 °C 1016.3 hPa ESE 6.4 km/h 14.5 km/h 27% 0.0 mm 689 W/m2
16:25 31.2 °C 10 °C 1016.3 hPa Calm   11.3 km/h 27% 0.0 mm 686 W/m2
16:30 31.2 °C 10.5 °C 1016.3 hPa SE 7.9 km/h 12.9 km/h 28% 0.0 mm 668 W/m2
16:35 31.3 °C 10.1 °C 1016.3 hPa NE 14.3 km/h 14.5 km/h 27% 0.0 mm 659 W/m2
16:40 31.2 °C 10.5 °C 1016.3 hPa NE 3.2 km/h 19.3 km/h 28% 0.0 mm 652 W/m2
16:45 31.3 °C 11.1 °C 1016.3 hPa ESE 13 km/h 12.9 km/h 29% 0.0 mm 640 W/m2
16:50 31.4 °C 10.7 °C 1016.3 hPa East 3.2 km/h 11.3 km/h 28% 0.0 mm 629 W/m2
16:55 31.4 °C 10.2 °C 1016.3 hPa SSW 3.2 km/h 9.7 km/h 27% 0.0 mm 622 W/m2
17:00 31.5 °C 10.2 °C 1016.3 hPa ESE 1.4 km/h 4.8 km/h 27% 0.0 mm 612 W/m2
17:05 31.6 °C 10.9 °C 1015.9 hPa SSE 4.7 km/h 6.4 km/h 28% 0.0 mm 578 W/m2
17:10 31.7 °C 11 °C 1015.9 hPa East 4.7 km/h 14.5 km/h 28% 0.0 mm 582 W/m2
17:15 31.6 °C 10.3 °C 1015.9 hPa East 3.2 km/h 8 km/h 27% 0.0 mm 568 W/m2
17:20 31.6 °C 10.9 °C 1015.9 hPa WSW 3.2 km/h 19.3 km/h 28% 0.0 mm 557 W/m2
17:25 31.6 °C 10.9 °C 1015.9 hPa ESE 4.7 km/h 9.7 km/h 28% 0.0 mm 540 W/m2
17:30 31.6 °C 10.9 °C 1015.9 hPa ESE 1.4 km/h 19.3 km/h 28% 0.0 mm 526 W/m2
17:35 31.6 °C 10.9 °C 1015.9 hPa NE 4.7 km/h 12.9 km/h 28% 0.0 mm 510 W/m2
17:41 31.6 °C 10.9 °C 1015.6 hPa East 3.2 km/h 11.3 km/h 28% 0.0 mm 497 W/m2
17:46 31.5 °C 11.3 °C 1015.6 hPa NE 4.7 km/h 8 km/h 29% 0.0 mm 483 W/m2
17:51 31.5 °C 11.3 °C 1015.6 hPa ESE 3.2 km/h 4.8 km/h 29% 0.0 mm 475 W/m2
17:56 31.5 °C 11.3 °C 1015.6 hPa NNE 4.7 km/h 12.9 km/h 29% 0.0 mm 466 W/m2
18:01 31.4 °C 11.2 °C 1015.6 hPa East 4.7 km/h 16.1 km/h 29% 0.0 mm 439 W/m2
18:06 31.4 °C 11.2 °C 1015.6 hPa East 1.4 km/h 6.4 km/h 29% 0.0 mm 436 W/m2
18:11 31.6 °C 11.4 °C 1015.6 hPa ESE 3.2 km/h 9.7 km/h 29% 0.0 mm 422 W/m2
18:16 31.6 °C 10.9 °C 1015.6 hPa North 4.7 km/h 14.5 km/h 28% 0.0 mm 403 W/m2
18:21 31.4 °C 10.7 °C 1015.6 hPa ESE 1.4 km/h 12.9 km/h 28% 0.0 mm 390 W/m2
18:26 31.3 °C 10.1 °C 1015.6 hPa NNE 3.2 km/h 14.5 km/h 27% 0.0 mm 378 W/m2
18:31 31.1 °C 9.9 °C 1015.6 hPa NNE 4.7 km/h 14.5 km/h 27% 0.0 mm 367 W/m2
18:36 31.1 °C 9.9 °C 1015.2 hPa ESE 4.7 km/h 14.5 km/h 27% 0.0 mm 357 W/m2
18:41 31.1 °C 9.9 °C 1015.2 hPa SE 3.2 km/h 6.4 km/h 27% 0.0 mm 346 W/m2
18:46 31.2 °C 10 °C 1015.2 hPa SE 1.4 km/h 14.5 km/h 27% 0.0 mm 334 W/m2
18:51 31.1 °C 9.9 °C 1015.2 hPa ENE 7.9 km/h 11.3 km/h 27% 0.0 mm 325 W/m2
18:56 30.9 °C 9.2 °C 1015.2 hPa NE 4.7 km/h 14.5 km/h 26% 0.0 mm 297 W/m2
19:01 30.8 °C 9.1 °C 1015.2 hPa Calm   4.8 km/h 26% 0.0 mm 279 W/m2
19:06 30.8 °C 9.1 °C 1015.2 hPa East 3.2 km/h 4.8 km/h 26% 0.0 mm 250 W/m2
19:11 30.8 °C 9.1 °C 1015.2 hPa ESE 9.7 km/h 14.5 km/h 26% 0.0 mm 155 W/m2
19:16 30.7 °C 9.6 °C 1015.2 hPa NNW 3.2 km/h 4.8 km/h 27% 0.0 mm 60 W/m2
19:21 30.6 °C 9.5 °C 1015.2 hPa East 3.2 km/h 14.5 km/h 27% 0.0 mm 51 W/m2
19:26 30.4 °C 9.3 °C 1015.2 hPa ENE 6.4 km/h 9.7 km/h 27% 0.0 mm 49 W/m2
19:31 30.2 °C 9.1 °C 1015.6 hPa ENE 6.4 km/h 11.3 km/h 27% 0.0 mm 47 W/m2
19:36 30 °C 9.5 °C 1015.2 hPa SSE 9.7 km/h 14.5 km/h 28% 0.0 mm 46 W/m2
19:41 29.9 °C 9.4 °C 1015.2 hPa East 6.4 km/h 9.7 km/h 28% 0.0 mm 42 W/m2
19:46 29.8 °C 9.3 °C 1015.6 hPa ESE 3.2 km/h 6.4 km/h 28% 0.0 mm 40 W/m2
19:51 29.8 °C 9.3 °C 1015.6 hPa SE 1.4 km/h 11.3 km/h 28% 0.0 mm 37 W/m2
19:56 29.7 °C 9.8 °C 1015.2 hPa East 1.4 km/h 9.7 km/h 29% 0.0 mm 35 W/m2
20:01 29.7 °C 9.8 °C 1015.6 hPa SSE 3.2 km/h 6.4 km/h 29% 0.0 mm 33 W/m2
20:06 29.5 °C 9.1 °C 1015.6 hPa NE 4.7 km/h 16.1 km/h 28% 0.0 mm 33 W/m2
20:11 29.4 °C 9.5 °C 1015.6 hPa SE 1.4 km/h 8 km/h 29% 0.0 mm 32 W/m2
20:16 29.2 °C 9.3 °C 1015.6 hPa ENE 4.7 km/h 12.9 km/h 29% 0.0 mm 30 W/m2
20:21 28.9 °C 9.1 °C 1015.6 hPa NE 1.4 km/h 11.3 km/h 29% 0.0 mm 26 W/m2
20:26 28.8 °C 9.5 °C 1015.6 hPa East 3.2 km/h 9.7 km/h 30% 0.0 mm 25 W/m2
20:31 28.6 °C 9.3 °C 1015.6 hPa East 6.4 km/h 11.3 km/h 30% 0.0 mm 23 W/m2
20:36 28.4 °C 9.2 °C 1015.6 hPa ENE 1.4 km/h 6.4 km/h 30% 0.0 mm 19 W/m2
20:41 28.3 °C 9.6 °C 1015.6 hPa East 4.7 km/h 4.8 km/h 31% 0.0 mm 16 W/m2
20:46 28.1 °C 9.9 °C 1015.6 hPa East 3.2 km/h 3.2 km/h 32% 0.0 mm 14 W/m2
20:51 27.8 °C 9.6 °C 1015.6 hPa Calm   4.8 km/h 32% 0.0 mm 11 W/m2
20:56 27.6 °C 9.4 °C 1015.9 hPa ENE 1.4 km/h 3.2 km/h 32% 0.0 mm 7 W/m2
21:01 27.3 °C 9.6 °C 1015.9 hPa ENE 1.4 km/h 1.6 km/h 33% 0.0 mm 7 W/m2
21:06 27.2 °C 10 °C 1015.9 hPa ESE 3.2 km/h 3.2 km/h 34% 0.0 mm 5 W/m2
21:11 26.9 °C 10.1 °C 1015.9 hPa Calm   1.6 km/h 35% 0.0 mm 0 W/m2
21:16 26.7 °C 10 °C 1015.9 hPa East 3.2 km/h 3.2 km/h 35% 0.0 mm 0 W/m2
21:21 26.4 °C 10.1 °C 1015.9 hPa East 1.4 km/h 3.2 km/h 36% 0.0 mm 0 W/m2
21:26 26.2 °C 10.4 °C 1015.9 hPa East 1.4 km/h 1.6 km/h 37% 0.0 mm 0 W/m2
21:31 25.9 °C 10.5 °C 1015.9 hPa Calm   1.6 km/h 38% 0.0 mm 0 W/m2
21:36 25.6 °C 10.2 °C 1015.9 hPa East 1.4 km/h 3.2 km/h 38% 0.0 mm 0 W/m2
21:41 25.3 °C 10.3 °C 1016.3 hPa Calm   3.2 km/h 39% 0.0 mm 0 W/m2
21:46 25 °C 10.5 °C 1016.3 hPa Calm   1.6 km/h 40% 0.0 mm 0 W/m2
21:51 24.7 °C 10.2 °C 1016.3 hPa East 1.4 km/h 3.2 km/h 40% 0.0 mm 0 W/m2
21:56 24.5 °C 10.4 °C 1016.3 hPa East 1.4 km/h 3.2 km/h 41% 0.0 mm 0 W/m2
22:01 24.3 °C 10.2 °C 1016.3 hPa Calm     41% 0.0 mm 0 W/m2
22:06 24.1 °C 10.4 °C 1016.3 hPa Calm   3.2 km/h 42% 0.0 mm 0 W/m2
22:11 23.9 °C 10.6 °C 1016.3 hPa East 1.4 km/h 1.6 km/h 43% 0.0 mm 0 W/m2
22:16 23.7 °C 10.7 °C 1016.3 hPa Calm     44% 0.0 mm 0 W/m2
22:21 23.4 °C 10.8 °C 1016.3 hPa Calm   1.6 km/h 45% 0.0 mm 0 W/m2
22:26 23.2 °C 10.6 °C 1016.3 hPa Calm   1.6 km/h 45% 0.0 mm 0 W/m2
22:31 23.1 °C 10.8 °C 1016.3 hPa ESE 1.4 km/h 3.2 km/h 46% 0.0 mm 0 W/m2
22:36 22.8 °C 10.6 °C 1016.3 hPa SE 1.4 km/h 3.2 km/h 46% 0.0 mm 0 W/m2
22:41 22.6 °C 10.7 °C 1016.3 hPa Calm     47% 0.0 mm 0 W/m2
22:46 22.4 °C 10.5 °C 1016.3 hPa Calm   1.6 km/h 47% 0.0 mm 0 W/m2
22:51 22.3 °C 10.1 °C 1016.3 hPa SE 1.4 km/h 1.6 km/h 46% 0.0 mm 0 W/m2
22:56 22.2 °C 10 °C 1016.3 hPa Calm   1.6 km/h 46% 0.0 mm 0 W/m2
23:01 22.1 °C 10.3 °C 1016.3 hPa Calm   1.6 km/h 47% 0.0 mm 0 W/m2
23:06 22.1 °C 9.9 °C 1016.3 hPa Calm     46% 0.0 mm 0 W/m2
23:11 22.1 °C 9.9 °C 1016.3 hPa South 3.2 km/h 6.4 km/h 46% 0.0 mm 0 W/m2
23:16 22.2 °C 10 °C 1016.3 hPa South 1.4 km/h 3.2 km/h 46% 0.0 mm 0 W/m2
23:21 22.2 °C 10 °C 1016.3 hPa South 1.4 km/h 3.2 km/h 46% 0.0 mm 0 W/m2
23:26 22.1 °C 10.3 °C 1016.3 hPa South 1.4 km/h 3.2 km/h 47% 0.0 mm 0 W/m2
23:31 21.9 °C 10.4 °C 1016.3 hPa South 1.4 km/h 3.2 km/h 48% 0.0 mm 0 W/m2
23:36 21.8 °C 10 °C 1016.3 hPa South 1.4 km/h 3.2 km/h 47% 0.0 mm 0 W/m2
23:41 21.7 °C 9.9 °C 1016.3 hPa South 1.4 km/h 1.6 km/h 47% 0.0 mm 0 W/m2
23:46 21.5 °C 10 °C 1016.3 hPa Calm   1.6 km/h 48% 0.0 mm 0 W/m2
23:51 21.4 °C 9.9 °C 1016.3 hPa Calm     48% 0.0 mm 0 W/m2
23:56 21.2 °C 9.8 °C 1016.3 hPa Calm   1.6 km/h 48% 0.0 mm 0 W/m2
Juneau County Weather
Compliments of Weather Underground - 4 mb